Temp
-21 -21 -21 -21 -21 -22 -22 -22 -22 -22 -22 -22 -22 -22 -22 -22 -22 -22 -22 -22 -22 -22 -22 -22 -22 -22 -23 -23 -23 -23 -23 -23 -23 -23 -23 -23 -23 -23 -23 -23 -23 -23
-22 -22 -22 -22 -22 -22 -22 -22 -22 -22 -22 -22 -22 -22 -23 -23 -23 -23 -23 -23 -23 -23 -23 -23 -23 -23 -23 -23 -23 -23 -23 -23 -23 -23 -23 -23 -23 -23 -23 -23 -23 -23
-22 -22 -22 -22 -22 -22 -22 -22 -22 -22 -22 -22 -22 -23 -23 -23 -23 -23 -23 -23 -23 -23 -23 -23 -23 -23 -23 -23 -23 -23 -23 -23 -23 -23 -23 -23 -23 -23 -23 -24 -24 -24
-22 -22 -22 -22 -22 -23 -23 -23 -23 -23 -23 -23 -23 -23 -23 -23 -23 -23 -23 -23 -23 -23 -23 -23 -23 -23 -24 -24 -24 -24 -24 -24 -24 -24 -24 -24 -24 -24 -24 -24 -24 -24
-23 -22 -22 -23 -23 -23 -23 -23 -23 -23 -23 -23 -23 -23 -23 -23 -23 -23 -23 -23 -23 -24 -24 -24 -24 -24 -24 -24 -24 -24 -24 -24 -24 -24 -24 -24 -24 -24 -24 -24 -24 -24
-24 -23 -23 -23 -23 -23 -23 -24 -24 -24 -24 -23 -23 -23 -23 -23 -23 -23 -24 -24 -24 -24 -24 -24 -24 -24 -24 -24 -24 -24 -24 -24 -24 -24 -24 -24 -24 -24 -24 -24 -24 -24
-25 -25 -24 -23 -23 -23 -23 -24 -24 -24 -24 -24 -24 -24 -24 -24 -24 -24 -24 -24 -24 -24 -24 -24 -24 -24 -25 -25 -25 -25 -25 -25 -25 -25 -25 -25 -25 -25 -25 -25 -25 -25
-25 -25 -25 -24 -24 -24 -24 -24 -24 -24 -24 -24 -25 -25 -25 -25 -25 -25 -25 -25 -25 -25 -25 -25 -25 -25 -25 -25 -25 -25 -25 -25 -25 -25 -25 -25 -25 -25 -25 -25 -25 -25
-26 -25 -25 -25 -25 -24 -24 -24 -24 -24 -24 -24 -24 -25 -25 -25 -25 -25 -25 -25 -25 -25 -25 -25 -25 -25 -25 -25 -25 -25 -26 -26 -26 -26 -26 -26 -26 -26 -26 -26 -26 -25
-26 -26 -25 -25 -25 -25 -25 -25 -25 -25 -25 -25 -25 -25 -25 -25 -25 -26 -26 -26 -26 -26 -26 -26 -26 -26 -26 -26 -26 -26 -26 -26 -26 -26 -26 -26 -26 -26 -26 -26 -26 -26
-26 -26 -26 -26 -26 -26 -26 -26 -26 -26 -26 -26 -26 -26 -26 -26 -26 -26 -26 -26 -26 -26 -26 -26 -26 -26 -26 -26 -26 -26 -26 -26 -26 -26 -26 -26 -26 -26 -26 -26 -26 -26
-26 -26 -27 -27 -27 -27 -27 -27 -27 -27 -27 -27 -27 -26 -26 -26 -26 -26 -26 -27 -27 -27 -27 -27 -27 -27 -27 -27 -27 -27 -27 -27 -27 -27 -27 -27 -27 -27 -26 -26 -26 -26
-27 -27 -27 -27 -27 -27 -27 -27 -27 -27 -27 -27 -27 -27 -27 -27 -27 -27 -27 -27 -27 -27 -27 -27 -27 -27 -27 -27 -27 -27 -27 -27 -27 -27 -27 -27 -27 -27 -27 -27 -27 -27
-28 -28 -28 -28 -28 -28 -28 -28 -28 -28 -28 -28 -28 -28 -28 -28 -28 -28 -28 -28 -28 -28 -28 -28 -28 -28 -28 -28 -28 -28 -27 -27 -27 -27 -27 -27 -27 -27 -27 -27 -27 -27
-28 -28 -28 -28 -28 -28 -28 -28 -28 -28 -28 -28 -28 -28 -28 -28 -28 -28 -28 -28 -28 -28 -28 -28 -28 -28 -28 -28 -28 -28 -28 -28 -27 -27 -27 -27 -27 -27 -27 -27 -27 -28
-29 -29 -29 -29 -29 -29 -29 -29 -29 -29 -29 -29 -29 -29 -29 -29 -28 -28 -28 -28 -28 -28 -28 -28 -28 -28 -28 -28 -28 -28 -28 -28 -28 -28 -28 -28 -28 -28 -28 -28 -28 -28
-29 -29 -29 -29 -29 -29 -29 -29 -29 -29 -29 -29 -29 -29 -29 -29 -29 -29 -29 -29 -29 -29 -29 -29 -29 -29 -29 -29 -29 -29 -29 -29 -29 -29 -28 -28 -28 -28 -28 -28 -28 -28
-30 -30 -30 -30 -30 -30 -30 -30 -30 -30 -30 -30 -30 -30 -30 -30 -30 -30 -30 -30 -30 -29 -29 -29 -29 -29 -29 -29 -29 -29 -29 -29 -29 -29 -29 -29 -29 -29 -29 -29 -29 -29
-30 -31 -31 -31 -31 -31 -31 -31 -31 -31 -31 -31 -30 -30 -30 -30 -30 -30 -30 -30 -30 -30 -30 -30 -30 -30 -30 -30 -30 -30 -30 -30 -30 -30 -30 -29 -29 -29 -29 -29 -29 -29
-31 -31 -31 -31 -31 -31 -31 -31 -31 -31 -31 -31 -31 -31 -31 -31 -31 -31 -31 -31 -30 -30 -30 -30 -30 -30 -30 -30 -30 -30 -30 -30 -30 -30 -30 -30 -30 -30 -30 -30 -30 -30
-32 -32 -32 -32 -32 -32 -32 -32 -32 -32 -32 -32 -32 -32 -32 -32 -32 -32 -31 -31 -31 -31 -31 -31 -31 -31 -31 -31 -31 -31 -31 -31 -31 -31 -31 -31 -31 -31 -31 -31 -31 -31
-32 -32 -32 -32 -33 -33 -33 -33 -33 -33 -33 -33 -33 -33 -33 -33 -32 -32 -32 -32 -32 -32 -32 -32 -32 -32 -32 -32 -32 -32 -32 -32 -32 -32 -32 -32 -32 -32 -32 -32 -32 -32
-33 -33 -33 -33 -33 -33 -33 -33 -33 -33 -33 -33 -33 -33 -33 -33 -33 -33 -33 -33 -33 -33 -33 -33 -33 -33 -33 -34 -34 -33 -33 -33 -33 -33 -33 -33 -33 -33 -33 -32 -32 -32
-34 -34 -34 -34 -34 -34 -34 -34 -34 -34 -34 -34 -34 -34 -34 -34 -34 -34 -34 -34 -34 -34 -34 -34 -34 -34 -34 -34 -34 -34 -34 -34 -33 -33 -33 -33 -33 -33 -33 -33 -33 -32
-35 -35 -35 -34 -34 -34 -34 -34 -34 -34 -34 -34 -34 -34 -34 -34 -34 -34 -35 -35 -35 -35 -35 -35 -35 -35 -35 -34 -34 -34 -34 -34 -34 -33 -33 -33 -33 -33 -33 -33 -33 -33
-35 -35 -35 -35 -35 -35 -35 -35 -35 -35 -35 -35 -35 -35 -35 -35 -35 -35 -35 -35 -35 -35 -35 -35 -35 -35 -35 -35 -34 -34 -34 -34 -34 -34 -34 -33 -33 -33 -33 -33 -33 -33
Height
5567 5565 5565 5564 5563 5562 5561 5560 5559 5558 5558 5557 5557 5556 5555 5554 5553 5551 5551 5550 5549 5548 5547 5546 5545 5544 5543 5542 5541 5541 5541 5541 5541 5540 5538 5538 5539 5538 5537 5537 5536 5535
5558 5557 5556 5555 5554 5553 5551 5550 5549 5549 5549 5547 5547 5546 5545 5544 5543 5542 5541 5541 5540 5539 5538 5537 5536 5535 5534 5533 5532 5531 5531 5531 5531 5530 5528 5529 5529 5527 5528 5527 5525 5525
5549 5547 5546 5545 5544 5543 5542 5541 5540 5539 5538 5537 5536 5535 5534 5533 5532 5532 5531 5530 5530 5529 5528 5527 5526 5525 5524 5523 5521 5521 5522 5521 5521 5519 5517 5519 5518 5517 5518 5516 5515 5515
5538 5537 5536 5535 5534 5533 5531 5530 5530 5528 5527 5527 5526 5524 5524 5523 5522 5521 5521 5520 5519 5519 5518 5516 5516 5515 5513 5512 5511 5511 5511 5511 5510 5508 5506 5509 5508 5507 5507 5505 5504 5505
5526 5525 5525 5524 5523 5522 5520 5519 5518 5517 5516 5516 5514 5513 5512 5511 5510 5510 5509 5509 5508 5508 5507 5506 5505 5504 5503 5501 5500 5500 5501 5500 5499 5497 5496 5498 5497 5496 5496 5494 5494 5494
5514 5512 5512 5511 5511 5510 5509 5507 5506 5505 5504 5504 5503 5501 5500 5499 5499 5498 5497 5497 5496 5496 5496 5495 5494 5493 5491 5490 5489 5489 5489 5488 5488 5485 5485 5487 5486 5484 5484 5483 5483 5483
5501 5500 5499 5498 5498 5497 5497 5495 5494 5493 5492 5492 5491 5490 5488 5488 5487 5486 5485 5485 5484 5484 5484 5483 5482 5481 5479 5478 5477 5478 5478 5476 5475 5473 5473 5475 5474 5472 5473 5471 5471 5471
5489 5488 5487 5486 5485 5485 5484 5484 5483 5482 5481 5481 5480 5478 5477 5476 5475 5474 5473 5472 5472 5472 5471 5470 5469 5468 5467 5465 5465 5465 5465 5463 5463 5461 5461 5463 5461 5460 5461 5459 5457 5459
5478 5476 5475 5474 5473 5472 5472 5471 5471 5470 5469 5469 5468 5467 5465 5464 5463 5462 5461 5460 5460 5459 5459 5458 5457 5456 5454 5453 5453 5453 5452 5451 5450 5449 5448 5449 5449 5448 5448 5446 5444 5446
5466 5465 5464 5462 5461 5460 5459 5459 5458 5457 5456 5455 5455 5454 5453 5452 5451 5450 5449 5448 5447 5447 5446 5445 5444 5443 5441 5440 5440 5440 5439 5438 5437 5436 5435 5436 5436 5435 5435 5432 5431 5433
5454 5453 5452 5450 5449 5448 5447 5446 5445 5444 5443 5442 5442 5441 5440 5439 5438 5437 5436 5435 5434 5433 5432 5431 5430 5429 5428 5428 5427 5426 5425 5425 5424 5422 5421 5421 5422 5421 5421 5419 5417 5419
5443 5441 5440 5438 5437 5436 5435 5434 5433 5432 5431 5429 5429 5428 5427 5426 5425 5424 5423 5422 5422 5420 5419 5418 5417 5416 5415 5414 5414 5412 5411 5411 5410 5409 5408 5408 5408 5408 5407 5405 5404 5405
5431 5430 5428 5426 5425 5424 5423 5421 5420 5419 5418 5417 5416 5415 5414 5413 5413 5411 5410 5409 5408 5407 5406 5405 5404 5403 5401 5400 5399 5399 5397 5397 5396 5396 5395 5394 5394 5394 5393 5392 5391 5391
5420 5418 5416 5414 5413 5412 5410 5409 5408 5406 5405 5404 5403 5402 5401 5400 5399 5398 5397 5396 5395 5394 5392 5391 5390 5389 5388 5386 5385 5385 5383 5382 5382 5381 5381 5380 5380 5380 5379 5378 5378 5378
5408 5406 5405 5403 5401 5400 5398 5397 5396 5394 5393 5392 5391 5390 5388 5387 5386 5385 5384 5383 5382 5381 5379 5378 5377 5376 5375 5373 5372 5371 5369 5368 5368 5367 5366 5366 5366 5366 5366 5365 5364 5364
5397 5395 5393 5391 5389 5388 5386 5385 5384 5382 5381 5379 5378 5376 5375 5373 5372 5371 5370 5370 5369 5368 5366 5365 5363 5362 5361 5359 5358 5357 5356 5354 5354 5353 5353 5352 5352 5352 5353 5352 5351 5351
5384 5382 5381 5379 5377 5375 5374 5372 5370 5369 5367 5366 5364 5363 5361 5360 5359 5357 5356 5355 5354 5354 5352 5351 5350 5348 5347 5346 5344 5342 5341 5340 5340 5340 5339 5338 5338 5339 5339 5339 5338 5337
5370 5368 5367 5365 5363 5362 5360 5358 5357 5355 5353 5352 5351 5349 5348 5346 5345 5344 5343 5341 5340 5340 5339 5338 5336 5335 5333 5332 5331 5329 5327 5325 5325 5325 5325 5325 5325 5324 5325 5325 5324 5323
5355 5354 5353 5351 5349 5348 5346 5344 5343 5341 5340 5339 5338 5336 5334 5333 5332 5330 5329 5328 5327 5326 5325 5324 5323 5321 5320 5318 5317 5316 5314 5311 5311 5311 5312 5312 5311 5311 5310 5310 5310 5309
5342 5341 5339 5338 5336 5334 5333 5331 5330 5328 5327 5326 5325 5323 5321 5320 5319 5317 5316 5314 5313 5312 5311 5310 5309 5307 5306 5304 5303 5302 5299 5298 5298 5299 5298 5298 5298 5297 5297 5297 5296 5295
5331 5329 5327 5326 5324 5322 5320 5319 5317 5316 5314 5313 5312 5310 5308 5307 5305 5304 5302 5301 5299 5298 5297 5296 5294 5293 5292 5290 5289 5287 5285 5285 5286 5286 5285 5284 5284 5284 5284 5284 5284 5282
5319 5318 5316 5314 5313 5311 5309 5307 5306 5304 5303 5301 5300 5298 5296 5294 5293 5291 5289 5288 5286 5285 5284 5282 5280 5279 5278 5277 5275 5273 5272 5274 5275 5273 5272 5272 5271 5272 5272 5271 5271 5271
5307 5306 5305 5303 5302 5301 5299 5297 5296 5294 5292 5291 5289 5287 5285 5283 5281 5279 5277 5276 5275 5273 5272 5270 5268 5267 5266 5265 5263 5261 5261 5262 5263 5262 5261 5260 5260 5260 5260 5260 5259 5259
5296 5295 5295 5294 5293 5291 5289 5288 5287 5285 5283 5281 5280 5278 5276 5274 5272 5269 5266 5265 5264 5262 5261 5259 5257 5256 5255 5254 5252 5250 5250 5251 5251 5250 5249 5249 5248 5248 5248 5248 5248 5248
5287 5287 5286 5285 5284 5283 5281 5280 5279 5277 5275 5273 5271 5269 5267 5265 5263 5260 5257 5255 5254 5252 5251 5250 5248 5246 5244 5243 5242 5240 5238 5239 5239 5238 5238 5237 5237 5237 5237 5237 5237 5236
5280 5279 5278 5277 5276 5275 5273 5272 5271 5269 5268 5266 5263 5261 5259 5257 5255 5253 5250 5247 5246 5244 5242 5241 5239 5237 5234 5233 5231 5229 5228 5227 5228 5227 5227 5226 5227 5227 5227 5227 5225 5225
Wind_Speed
62 62 62 62 62 62 62 62 62 61 61 60 60 60 61 61 63 63 64 64 64 64 65 65 66 66 66 67 67 67 67 67 68 68 69 69 68 69 69 69 70 71
65 66 66 66 66 66 66 66 66 65 65 64 63 63 63 64 65 66 67 67 68 68 68 68 69 69 69 69 70 70 70 70 70 71 71 71 71 72 71 72 72 73
68 69 69 69 68 68 69 69 70 70 70 69 69 68 68 68 68 69 70 70 71 71 71 71 71 71 72 72 72 72 72 72 72 73 74 74 74 74 74 74 75 75
72 72 71 71 71 71 71 71 72 73 73 73 73 73 72 72 72 71 72 73 73 74 74 75 74 74 74 74 75 74 74 75 75 76 76 76 76 76 76 77 77 77
76 76 75 74 73 73 73 73 74 75 75 76 76 76 76 75 75 74 74 74 75 76 77 77 77 77 77 77 77 77 77 77 77 78 78 78 78 79 79 79 79 79
78 80 80 78 76 75 75 74 74 75 75 76 77 78 78 78 78 77 77 77 77 78 78 79 79 79 80 79 79 79 79 79 79 80 80 80 80 81 81 81 81 81
78 80 82 81 80 79 77 75 74 74 74 75 76 77 78 79 79 79 79 79 79 79 79 80 81 81 82 82 81 81 81 81 81 82 82 82 83 83 83 83 83 82
80 82 82 82 81 79 77 76 75 74 74 74 75 76 78 78 78 79 79 79 79 80 80 81 82 83 84 84 83 83 82 83 83 84 84 84 85 85 85 85 85 84
81 81 81 80 80 79 78 78 78 78 78 78 78 78 78 78 78 78 78 78 79 80 81 82 83 85 86 86 86 85 85 85 85 86 86 86 87 87 87 87 87 85
81 81 81 82 82 82 82 82 82 82 82 81 81 80 80 79 79 79 79 79 80 81 82 83 85 86 87 88 88 88 87 88 88 88 89 89 88 88 88 88 88 87
84 84 85 85 84 84 83 83 83 82 81 80 80 79 79 79 79 80 80 81 81 82 83 84 85 86 87 87 87 88 88 89 89 90 90 89 89 88 88 88 89 88
86 86 86 86 85 84 84 84 83 82 81 80 80 79 79 80 80 81 82 83 83 83 84 84 85 86 87 88 89 90 90 90 90 90 89 89 88 88 88 88 88 87
86 86 86 86 86 85 84 83 82 82 81 81 81 81 81 81 82 84 85 86 86 86 87 87 88 89 90 91 91 91 91 90 89 89 88 88 88 88 87 87 86 86
81 82 82 82 82 82 82 82 82 82 83 83 83 83 84 84 85 86 87 87 87 87 88 88 88 89 89 89 89 89 89 90 89 89 89 88 88 87 86 85 85 85
78 79 79 80 80 81 82 82 83 83 84 84 84 84 84 84 84 84 84 85 85 86 86 87 87 87 87 88 88 89 90 91 90 90 88 87 86 85 84 84 83 83
79 80 80 81 82 82 83 83 83 83 84 84 84 84 84 84 84 85 86 86 87 88 89 89 90 90 90 90 91 91 91 91 89 87 86 85 84 83 83 83 83 83
83 83 84 84 84 85 85 85 85 85 85 85 85 85 85 86 87 87 88 89 89 89 89 89 89 89 88 88 88 88 88 87 85 85 84 84 83 83 83 83 84 84
87 87 87 87 87 87 86 86 86 86 85 85 85 85 85 85 86 86 86 86 86 86 86 85 85 85 84 84 84 83 83 84 83 83 83 83 83 83 83 84 84 84
86 86 86 86 86 85 85 85 85 85 84 84 84 84 84 85 85 85 85 85 85 85 85 85 85 84 84 83 83 82 82 83 83 83 82 82 82 82 82 82 82 82
80 80 80 79 79 79 79 79 79 80 80 80 81 81 82 83 84 84 85 86 86 86 86 86 86 86 85 84 84 83 83 83 83 82 82 81 81 81 80 80 79 79
74 75 75 74 73 73 72 72 72 73 73 74 75 76 77 78 79 80 81 82 83 84 84 84 84 84 84 84 83 83 83 82 81 80 80 79 79 78 78 77 76 76
73 72 72 71 69 68 68 68 67 68 68 68 68 69 70 71 72 73 74 75 76 77 78 78 79 79 79 79 79 79 78 77 76 76 75 75 74 74 73 72 72 71
68 67 66 64 63 62 62 61 61 61 62 62 62 63 63 64 65 66 67 67 68 69 70 70 71 72 72 72 72 72 72 71 70 69 69 69 69 69 68 68 68 69
59 58 58 57 56 56 56 56 56 56 56 57 58 59 59 60 61 61 62 62 62 62 62 63 64 64 65 65 66 67 68 67 66 67 67 67 67 67 68 68 68 69
52 51 51 51 51 51 51 51 51 51 52 53 54 55 55 55 56 56 56 57 56 57 57 57 58 60 61 62 63 65 65 65 65 66 66 67 67 67 67 68 68 69
46 46 46 46 46 45 46 46 47 48 49 49 50 50 51 51 51 51 52 53 53 53 53 54 54 56 58 60 61 63 64 65 65 66 66 67 67 67 68 68 69 69
Wind_Direction
271 271 270 270 269 269 268 268 268 268 268 268 269 269 269 269 268 268 267 267 267 266 266 267 267 267 267 268 268 268 269 269 270 270 270 270 270 270 270 271 271 272
271 270 269 269 268 268 268 268 267 267 267 267 267 267 267 268 267 267 267 267 267 267 266 266 266 267 267 267 268 268 268 269 269 269 269 270 270 270 270 271 271 271
270 270 269 269 268 267 267 267 267 267 267 267 267 266 266 266 267 267 267 266 266 266 265 265 265 266 266 266 266 267 267 268 268 268 268 269 269 270 270 270 271 271
269 268 268 267 267 267 266 266 266 266 266 267 267 267 267 268 268 268 268 268 267 266 266 266 266 266 266 266 266 267 267 267 268 268 268 269 269 270 270 270 271 271
271 270 268 267 266 266 266 266 265 265 264 265 265 265 266 266 267 267 268 268 268 267 267 266 266 267 267 267 267 268 268 268 268 269 269 270 270 270 270 271 271 272
271 271 270 269 268 268 267 267 265 264 263 263 263 263 264 264 265 266 266 267 268 268 268 267 267 267 267 267 267 268 268 269 269 269 270 270 271 271 271 271 271 272
270 270 271 271 270 270 269 268 266 265 264 263 263 263 263 264 264 265 266 267 268 268 268 267 267 267 267 267 267 268 268 268 269 269 270 270 271 271 271 271 271 271
270 271 272 273 272 271 269 268 267 266 266 266 265 265 265 265 265 266 266 267 268 268 268 267 267 267 267 267 267 268 268 269 269 270 270 271 271 271 271 271 271 271
271 272 273 273 274 273 273 272 271 270 270 269 268 268 268 267 267 268 268 268 268 268 268 268 267 267 267 267 268 268 269 269 270 271 271 272 272 272 271 271 271 272
273 274 274 275 275 275 275 275 274 274 273 272 271 271 270 270 270 270 271 271 271 271 270 269 269 268 268 268 269 269 270 270 271 272 273 273 273 272 272 272 272 273
274 274 275 275 275 275 275 274 274 274 273 273 272 271 271 271 272 272 273 273 273 272 272 271 270 269 269 269 270 270 271 272 273 274 274 274 274 273 273 273 274 273
273 274 274 274 274 274 273 274 274 274 273 273 272 271 271 271 272 272 273 273 273 272 271 270 270 270 270 271 271 272 273 273 273 274 274 274 274 274 274 274 273 272
271 271 272 272 273 273 273 273 273 273 273 272 271 271 271 272 273 273 273 273 273 272 272 271 271 272 272 273 273 273 273 272 273 274 274 274 274 274 273 272 271 271
270 270 270 270 270 271 271 271 271 272 272 272 272 273 273 274 274 274 274 274 273 273 273 273 273 273 273 273 273 273 273 273 274 275 275 275 274 273 272 271 271 270
268 269 269 269 270 270 270 271 271 272 272 273 273 273 274 274 274 274 273 273 274 274 274 274 274 274 274 274 274 274 275 276 276 276 275 274 273 272 271 270 270 270
268 268 269 269 270 270 271 271 272 273 273 274 274 275 275 275 275 275 275 275 275 275 275 275 275 275 275 275 276 276 276 276 275 274 273 272 271 271 270 270 269 269
272 272 273 273 273 273 274 274 275 276 276 277 278 278 278 278 278 277 277 277 277 276 276 276 276 276 275 275 275 275 274 274 273 272 271 271 271 270 270 269 269 269
277 277 277 277 277 278 278 278 278 279 279 279 279 279 279 278 278 277 277 276 276 276 275 275 274 274 274 274 273 273 273 272 272 271 271 271 271 271 270 270 270 270
280 279 279 279 279 279 279 279 279 279 278 278 278 278 277 277 276 276 276 275 275 275 274 274 274 273 273 272 272 272 271 271 271 271 271 271 271 271 271 271 270 270
281 280 280 280 279 279 279 278 278 278 278 277 277 276 276 275 275 275 274 274 274 274 273 273 273 272 272 271 271 270 270 270 270 270 270 270 270 270 270 270 270 270
280 280 280 280 280 279 279 279 279 278 278 277 277 277 276 276 275 275 274 274 273 273 273 272 272 271 271 271 270 270 270 270 270 270 270 270 270 270 270 270 270 270
280 279 278 278 278 279 279 279 279 279 279 279 279 278 278 278 277 277 276 275 275 274 274 273 273 273 272 272 272 272 271 271 271 271 271 271 271 271 270 270 269 269
279 278 278 278 278 278 279 279 280 281 281 281 281 281 281 281 281 280 280 279 278 277 276 275 274 274 274 274 273 273 273 273 272 272 271 271 270 270 269 269 269 268
280 279 278 278 278 279 280 281 281 282 282 283 283 283 283 283 283 283 282 282 282 281 280 278 276 275 274 274 273 273 272 272 271 270 269 269 268 268 268 268 268 268
281 280 280 280 280 281 281 281 282 282 283 284 285 285 285 285 284 284 283 283 283 283 282 280 279 277 275 274 273 272 271 270 269 269 268 268 268 268 268 268 268 268
283 283 283 283 283 283 283 283 283 284 284 285 286 286 286 286 285 284 284 284 284 283 283 281 280 278 276 275 274 273 272 271 270 270 269 269 269 269 269 270 270 270